Location: *
(38.8181°S, 103.0319°E)
Time: 08:11:13
(UTC+00:00)

Daily predictions for brighter satellites

Satellite Brightness Start Highest point End
(mag) Time Altitude Azimuth Time Altitude Azimuth Time Altitude Azimuth
Cosmos 1340 Rocket 2.6 12:01:25 10° S 12:05:27 88° E 12:09:23 10° N
Cosmos 1869 Rocket 4.3 12:01:53 10° SSW 12:06:22 56° W 12:10:45 10° N
USA 32 4.4 12:01:31 10° NNE 12:05:37 42° ENE 12:05:37 42° ENE
SAR-Lupe-1 4.2 12:07:11 63° N 12:07:11 63° N 12:10:16 10° NNW
Cosmos 1271 Rocket 3.0 12:05:02 10° NNW 12:09:01 69° W 12:10:39 34° S
Cosmos 2333 Rocket 2.3 12:05:26 10° NNW 12:11:09 75° WSW 12:14:55 22° SSE
DELTA 2 R/B (1) 3.5 12:06:59 10° W 12:12:37 89° S 12:13:45 59° E
Cosmos 2315 Rocket 4.4 12:06:19 10° NNW 12:12:38 66° W 12:19:04 10° S
Cosmos 1484 Rocket 3.3 12:15:15 53° N 12:15:15 53° N 12:18:24 10° N
Cosmos 2184 Rocket 3.9 12:12:35 10° S 12:18:52 59° E 12:24:58 10° NNE
Cosmos 2278 Rocket 2.1 12:15:00 10° SSW 12:20:45 89° WNW 12:24:19 24° NNE
CZ-4 R/B 4.3 12:20:08 10° SW 12:22:13 14° WSW 12:24:18 10° W
Cosmos 1844 4.4 12:18:29 10° SSW 12:23:58 53° WNW 12:29:28 10° N
Cosmos 2219 Rocket 3.3 12:20:32 10° NW 12:25:54 42° WSW 12:30:22 15° S
COSMOS 2441 4.3 12:25:15 61° S 12:26:07 84° WSW 12:30:55 10° NNW
Cosmos 1844 Rocket 4.3 12:25:21 10° SW 12:30:27 34° WNW 12:35:32 10° NNW
CZ-2C R/B 4.0 12:30:28 10° S 12:34:34 31° WSW 12:38:37 10° NW
CZ-3B R/B 4.3 12:36:45 10° NW 12:48:59 78° WSW 12:48:59 78° WSW
Cosmos 2074 Rocket 4.1 12:46:23 10° S 12:52:43 72° W 12:59:00 10° N
Nadezhda 1 Rocket 4.3 12:51:42 10° N 12:56:56 62° NNW 12:56:56 62° NNW
Lacrosse 5 3.1 12:57:39 10° SW 13:01:23 40° W 13:01:23 40° W
SL-16 R/B 3.2 13:02:06 10° NNW 13:05:49 41° NW 13:05:49 41° NW
Lacrosse 4 Rocket 4.5 13:25:20 10° W 13:26:21 13° WSW 13:26:21 13° WSW
Lacrosse 5 rocket 4.4 13:25:40 10° WSW 13:27:06 15° W 13:27:06 15° W
ATLAS 3B R/B 3.7 13:25:02 10° NW 13:28:41 36° WNW 13:28:41 36° WNW
Cosmos 2237 Rocket 4.5 13:34:34 10° W 13:38:21 18° SW 13:39:06 17° SW
Cosmos 2237 Rocket 4.1 20:50:03 25° ESE 20:50:03 25° ESE 20:53:33 10° ENE
COSMOS 2455 4.2 21:01:21 33° ESE 21:01:21 33° ESE 21:06:26 10° ENE
ATLAS 3B R/B 3.5 21:03:57 45° SSE 21:04:42 46° SE 21:11:50 10° ENE
Cosmos 2333 Rocket 3.5 21:08:53 36° E 21:08:53 36° E 21:12:47 10° NE
Cosmos 2219 Rocket 3.5 21:23:19 33° NE 21:23:19 33° NE 21:26:23 10° NNE
Cosmos 2227 Rocket 3.0 21:25:51 46° SE 21:25:51 46° SE 21:29:59 10° SSE
CZ-4 R/B 3.6 21:30:20 10° ENE 21:33:30 23° ESE 21:34:04 22° ESE
CZ-3 Stage 3 4.4 21:38:49 31° N 21:39:37 33° NNE 21:51:07 10° E
Cosmos 2026 Rocket 4.1 21:42:16 61° S 21:42:16 61° S 21:47:16 10° S
Cosmos 990 Rocket 4.4 21:41:33 55° NE 21:42:12 60° ENE 21:47:24 10° SSE
Cosmos 2297 Rocket 2.4 21:44:35 47° N 21:46:07 68° ENE 21:51:48 10° SSE
Cosmos 44 4.3 21:48:40 34° SE 21:48:40 34° SE 21:51:14 10° SE
Cosmos 2151 4.5 21:47:09 10° NNE 21:51:05 37° E 21:55:04 10° SSE
Thor Agena Rocket 3.7 21:47:31 10° SSE 21:52:48 71° ENE 21:57:55 10° N
CSL-04 Debris 4.1 21:47:43 10° NNE 21:53:15 87° WNW 21:53:32 81° SW
Lacrosse 4 Rocket 3.9 21:56:58 12° N 21:56:58 12° N 21:57:15 10° N
Cosmos 1553 Rocket 4.2 21:47:54 10° S 21:54:17 70° E 22:00:39 10° NNE
ATLAS 2AS CENTAUR R/B 2.9 21:57:53 44° SSW 21:57:53 44° SSW 22:02:41 10° SSE
FALCON 9 R/B 2.5 21:57:54 52° NNW 21:58:44 58° NNE 22:10:41 10° E
Cosmos 1417 Rocket 4.3 21:56:37 23° S 22:00:41 80° W 22:06:49 10° N
SL-16 R/B 3.1 21:59:17 17° S 22:03:25 47° ESE 22:08:52 10° NE
CSL-04 Rocket 4.3 21:59:02 10° N 22:02:46 41° NNW 22:02:46 41° NNW
CZ-2C R/B 4.4 22:00:19 10° NE 22:04:33 27° ESE 22:08:42 10° SSE
NOSS 0 Rocket 3.9 22:07:13 56° WNW 22:07:21 56° WNW 22:13:22 10° N
BREEZE M DEB (TANK) 3.8 22:09:34 41° N 22:10:33 54° NE 22:18:33 10° ESE
Gbstr 26 Del rocket 3.5 22:10:16 50° NNW 22:11:34 77° NE 22:17:34 10° SE
USA 215 3.8 22:07:00 10° ENE 22:13:21 55° SE 22:17:22 24° SSW
Cosmos 1151 Rocket 2.9 22:13:29 56° S 22:14:23 85° E 22:18:40 10° N
Cosmos 1937 Rocket 4.0 22:17:10 42° SSW 22:17:10 42° SSW 22:21:17 10° S
USA 238 DEB 3.9 22:19:56 19° SSW 22:25:25 73° SE 22:32:32 10° NE
USA 238 4.0 22:20:01 18° SSW 22:25:32 72° SE 22:32:39 10° NE
SMAP 3.5 22:22:30 10° NNE 22:27:06 61° ESE 22:31:47 10° S
Cosmos 1428 Rocket 4.4 22:21:35 10° NNW 22:27:36 59° W 22:33:47 10° S
Cosmos 1980 4.0 22:27:43 41° W 22:28:18 43° WNW 22:33:37 10° N
Cosmos 2237 Rocket 2.5 22:31:57 38° WSW 22:33:00 42° WNW 22:38:17 10° N
USA 116 3.3 22:29:55 10° S 22:33:49 75° WSW 22:37:15 10° NNW
GEOS 3 Rocket 4.1 22:31:18 10° SE 22:36:38 63° ENE 22:41:53 10° NNW
H-2A R/B 4.2 22:33:05 10° NNW 22:36:48 24° NE 22:47:59 10° E
SJ-12 4.2 22:33:11 10° NNE 22:37:20 70° ESE 22:41:35 10° S
Cosmos 1805 Rocket 3.7 22:35:29 10° N 22:39:55 76° E 22:44:27 10° S
PSLV R/B 3.2 22:40:44 62° SW 22:41:06 68° S 22:44:27 10° ESE
BREEZE-M DEB (TANK) 3.9 22:40:51 31° WNW 22:41:08 31° WNW 22:43:27 10° NNE
Cosmos 1269 Rocket 4.3 22:37:08 10° SSW 22:42:30 71° ESE 22:47:48 10° NNE
SPOT 3 Rocket 3.6 22:38:55 10° N 22:43:59 56° W 22:49:09 10° SSW
Meteor 1-4 Rocket 3.0 22:40:15 10° S 22:44:08 67° E 22:47:58 10° NNE
CZ-4C R/B 2.7 22:40:02 12° SSW 22:45:18 57° SE 22:50:29 10° NE
Meteor 1-11 4.4 22:40:29 10° N 22:46:15 79° E 22:52:09 10° SSE
COSMOS 2455 3.3 22:44:34 28° WSW 22:46:59 39° WNW 22:52:29 10° N
Molniya-1 3.3 22:46:18 35° WSW 22:47:29 51° WNW 22:50:13 10° NNE
Abrixas rocket 4.1 22:48:20 18° S 22:49:22 21° SSE 22:52:03 10° ESE
MOS 1 4.4 22:45:44 10° N 22:51:16 52° W 22:56:54 10° SSW
Cosmos 2333 Rocket 3.2 22:50:57 24° W 22:51:22 25° WNW 22:55:52 10° NNW
Cosmos 1726 2.2 22:49:39 10° S 22:53:27 78° E 22:57:12 10° N
Cosmos 1607 4.1 22:48:47 10° SSW 22:55:09 82° ESE 23:01:32 10° NNE
Cosmos 2058 2.9 22:51:03 10° NNW 22:55:14 61° W 22:59:26 10° S
ATLAS 3B R/B 3.4 22:51:16 22° WSW 22:55:19 38° WNW 23:02:08 10° N
YAOGAN 1 2.7 22:52:41 10° N 22:56:57 54° W 23:01:17 10° SSW
COSMO-SKYMED 1 3.6 22:52:59 10° SSE 22:57:17 49° E 23:01:31 10° N
Cosmos 1328 4.3 22:54:20 10° NW 22:58:04 36° WSW 23:01:50 10° S
Cosmos 2242 Rocket 4.5 22:54:12 10° S 22:58:35 51° E 23:02:53 10° NNE
Cosmos 883 Rocket 4.5 22:52:28 10° S 22:58:54 73° W 23:05:12 10° N
Sich 1 3.2 22:56:20 10° N 23:00:46 82° E 23:05:18 10° S
SAR-Lupe-4 3.9 22:59:53 10° NNE 23:03:27 68° ESE 23:07:06 10° S
Cosmos 2219 Rocket 3.9 23:05:07 13° WNW 23:05:07 13° WNW 23:06:40 10° NW
Cosmos 1707 Rocket 3.4 22:59:46 10° S 23:04:11 75° W 23:08:31 10° N
NOSS 3-2 (A) 4.1 22:58:19 10° SSW 23:04:49 56° SE 23:10:47 10° NE
Cosmos 1666 Rocket 3.4 23:03:02 10° NNW 23:07:22 73° W 23:11:47 10° S
Cosmos 2266 Rocket 4.2 23:01:45 10° NNW 23:07:57 52° W 23:14:18 10° S
CZ-4 R/B 2.4 23:05:05 10° NNW 23:08:26 25° W 23:10:08 19° WSW
Cosmos 2227 Rocket 3.5 23:07:45 18° WSW 23:08:52 19° SW 23:12:54 10° S
Cosmos 1300 2.9 23:05:30 10° SSW 23:09:17 49° W 23:13:01 10° NNW
Cosmos 2315 Rocket 4.0 23:05:02 10° S 23:11:28 82° W 23:17:46 10° N
SL-24 R/B 4.2 23:11:26 10° NNE 23:15:40 82° ESE 23:20:15 10° S
IDEFIX/ARIANE 42P 2.5 23:10:26 10° N 23:15:40 74° WNW 23:21:01 10° SSW
Cosmos 1346 3.2 23:13:51 10° NNW 23:16:52 54° WSW 23:19:56 10° S
Resurs 01 Rocket 3.7 23:14:36 10° NE 23:18:25 28° ESE 23:22:17 10° S
RESURS DK-1 4.1 23:14:48 10° N 23:18:38 37° ENE 23:22:33 10° SE
NOSS 3-4 (A) 4.1 23:12:21 10° NNW 23:20:06 84° ENE 23:27:49 10° SE
NOSS 3-4 (C) 4.1 23:12:30 10° NNW 23:20:16 84° ENE 23:27:57 10° SE
Cosmos 1933 Rocket 4.3 23:17:17 10° N 23:21:37 58° E 23:26:02 10° SSE
Cosmos 1470 Rocket 4.1 23:18:59 10° N 23:23:24 65° E 23:27:53 10° SSE
Helios 1B rocket 4.1 23:22:01 10° SSE 23:25:58 40° E 23:29:52 10° N
Cosmos 1455 3.0 23:23:57 10° S 23:27:44 53° E 23:31:27 10° NNE
Cosmos 2151 4.5 23:25:46 10° WNW 23:28:32 17° WSW 23:31:20 10° SSW
ATLAS 5 CENTAUR R/B 4.4 23:26:44 10° S 23:29:17 13° SSE 23:31:45 10° ESE
Cosmos 2297 Rocket 3.5 23:26:50 10° W 23:30:42 18° SW 23:34:36 10° S
COSMOS 2441 4.4 23:27:53 10° NNE 23:32:49 87° WNW 23:37:46 10° SSW
Cosmos 1048 Rocket 4.5 23:36:39 10° SW 23:41:28 39° WNW 23:46:16 10° N
Cosmos 1703 3.7 23:38:17 10° NNW 23:42:05 42° W 23:45:56 10° S
Cosmos 1633 Rocket 3.7 23:38:02 10° NW 23:42:09 36° WSW 23:46:19 10° S
Cosmos 1271 Rocket 3.8 23:39:18 10° SW 23:42:25 24° W 23:45:30 10° NW
CZ-2C R/B 3.2 23:38:04 10° NNW 23:42:38 33° W 23:47:09 10° SSW
SKYMED 2 3.9 23:41:05 10° S 23:45:19 46° WSW 23:49:29 10° NW
Spot 2 Rocket 4.2 23:40:37 10° NNE 23:45:36 60° ESE 23:50:39 10° S
Cosmos 1943 4.1 23:40:10 10° SSW 23:45:47 53° ESE 23:51:21 10° NE
SL-16 R/B 3.4 23:42:48 10° SW 23:47:09 23° W 23:51:29 10° NNW
Cosmos 372 Rocket 4.4 23:43:18 10° NW 23:48:08 39° WSW 23:53:04 10° S
NAVSTAR 52 R/B(PAM-D 3.7 23:46:32 10° W 23:48:57 88° S 23:52:09 10° E
ATLAS 2AS CENTAUR R/B 4.2 23:47:08 10° SW 23:49:06 11° SSW 23:51:03 10° S
Cosmos 1626 2.2 23:45:24 10° NNW 23:49:09 65° W 23:52:58 10° S
